カタログに戻る

FREGAT R/B

運用中MEO
NORAD 41106·ROCKET BODY·🇷🇺 Russia

打ち上げ Dec 11, 2015 から Baikonur Cosmodrome

Loading…

次のパス (今後24時間)

TLE

最新Source: Space-Track

元期: Sep 13, 2026, 22:48 UTC

1 41106U 15074B   26256.95013464 -.00000332  00000-0  00000-0 0  9991
2 41106   8.3279  60.7734 0197931   1.4915 358.6839  1.02895507 40429

AllMySatでFREGAT R/Bをリアルタイム追跡

Download on the App Store